EW4196 Weather Reports


Display with metric or nautical units.
time (UTC)temp
F
wind
direction
speed
MPH
gust
MPH
rain 1hr
in
rain 24hr
in
rain mn
in
humidity
%
barometer
mb
20260831084548 79 102 0.0 3.0 0.00 0.00 0.00 62 1012.6
20260831083052 80 96 0.0 1.0 0.00 0.00 0.00 62 1012.4
20260831081547 80 101 0.0 6.0 0.00 0.00 0.00 61 1012.4
20260831080045 81 176 1.0 4.0 0.00 0.00 0.00 61 1012.5
20260831074542 81 98 1.0 4.0 0.00 0.00 0.00 60 1012.5
20260831073041 81 97 0.0 4.0 0.00 0.00 0.00 60 1012.5
20260831071539 81 112 0.0 3.0 0.00 0.00 0.00 58 1012.4
20260831070106 82 98 0.0 4.0 0.00 0.00 0.00 58 1012.2
20260831064538 82 101 0.0 3.0 0.00 0.00 0.00 58 1012.3
20260831063037 81 105 1.0 6.0 0.00 0.00 0.00 57 1012.3
20260831061536 78 103 0.0 2.0 0.00 0.00 0.00 64 1012.4
20260831060038 78 96 0.0 0.0 0.00 0.00 0.00 63 1012.0
20260831054530 79 96 0.0 0.0 0.00 0.00 0.00 62 1012.0
20260831053027 80 96 0.0 0.0 0.00 0.00 0.00 60 1011.8
20260831051534 81 96 0.0 0.0 0.00 0.00 0.00 58 1011.8
20260831050019 83 96 0.0 0.0 0.00 0.00 0.00 54 1011.7
20260831044518 84 96 0.0 0.0 0.00 0.00 0.00 52 1011.7
20260831043016 85 96 0.0 0.0 0.00 0.00 0.00 49 1011.5
20260831041528 86 96 0.0 0.0 0.00 0.00 0.00 47 1011.5
20260831040035 86 121 0.0 2.0 0.00 0.00 0.00 46 1011.4
20260831034515 87 98 0.0 0.0 0.00 0.00 0.00 46 1011.4
20260831033013 87 96 0.0 0.0 0.00 0.00 0.00 45 1011.4
20260831031512 88 95 0.0 2.0 0.00 0.00 0.00 44 1011.3
20260831030011 88 101 0.0 3.0 0.00 0.00 0.00 44 1011.1
20260831024510 89 99 0.0 1.0 0.00 0.00 0.00 45 1011.0
20260831023017 90 98 1.0 5.0 0.00 0.00 0.00 43 1010.7
20260831021530 90 99 0.0 6.0 0.00 0.00 0.00 41 1010.5
20260831020009 91 98 0.0 1.0 0.00 0.00 0.00 41 1010.3
20260831014508 92 96 0.0 2.0 0.00 0.00 0.00 40 1010.1
20260831013008 92 106 0.0 2.0 0.00 0.00 0.00 38 1009.9
20260831011507 94 100 0.0 5.0 0.00 0.00 0.00 36 1009.9
20260831010018 94 100 0.0 4.0 0.00 0.00 0.00 34 1009.8
20260831004506 95 103 0.0 3.0 0.00 0.00 0.00 34 1009.8
20260831003005 96 95 0.0 4.0 0.00 0.00 0.00 34 1009.9
20260831001513 97 94 1.0 8.0 0.00 0.00 0.00 33 1009.8
20260831000005 98 122 0.0 8.0 0.00 0.00 0.00 33 1009.9
20260830234504 98 176 0.0 6.0 0.00 0.00 0.00 32 1009.9
20260830233006 99 124 0.0 8.0 0.00 0.00 0.00 32 1009.8
20260830231503 100 92 0.0 4.0 0.00 0.00 0.00 31 1009.8
20260830230002 101 108 0.0 9.0 0.00 0.00 0.00 30 1009.7
20260830224503 101 98 0.0 9.0 0.00 0.00 0.00 30 1009.8
20260830223103 101 101 2.0 8.0 0.00 0.00 0.00 30 1009.8
20260830221558 102 179 0.0 9.0 0.00 0.00 0.00 29 1010.0
20260830220121 102 139 0.0 4.0 0.00 0.00 0.00 28 1010.1
20260830214602 103 126 0.0 5.0 0.00 0.00 0.00 28 1010.1
20260830213055 103 142 0.0 8.0 0.00 0.00 0.00 29 1010.2
20260830211559 103 94 0.0 4.0 0.00 0.00 0.00 29 1010.2
20260830210051 102 132 1.0 5.0 0.00 0.00 0.00 29 1010.5
20260830204549 102 138 0.0 7.0 0.00 0.00 0.00 29 1010.6
20260830203056 102 134 1.0 8.0 0.00 0.00 0.00 28 1010.8
20260830201548 103 101 0.0 5.0 0.00 0.00 0.00 30 1011.0
20260830200044 102 131 0.0 2.0 0.00 0.00 0.00 30 1011.3
20260830194542 102 131 0.0 8.0 0.00 0.00 0.00 31 1011.5
20260830193037 102 91 0.0 3.0 0.00 0.00 0.00 31 1011.6
20260830191533 101 131 0.0 3.0 0.00 0.00 0.00 33 1011.8
20260830190033 100 126 0.0 3.0 0.00 0.00 0.00 33 1011.9
20260830184530 99 128 0.0 5.0 0.00 0.00 0.00 33 1012.0
20260830183027 100 103 0.0 5.0 0.00 0.00 0.00 33 1012.3
20260830181535 100 127 0.0 8.0 0.00 0.00 0.00 35 1012.4
20260830180036 99 139 1.0 5.0 0.00 0.00 0.00 36 1012.4
20260830174525 98 139 0.0 5.0 0.00 0.00 0.00 38 1012.8
20260830173031 98 133 0.0 4.0 0.00 0.00 0.00 38 1013.1
20260830171518 97 107 0.0 3.0 0.00 0.00 0.00 41 1013.4
20260830170012 96 179 0.0 10.0 0.00 0.00 0.00 41 1013.5
20260830164509 95 122 0.0 6.0 0.00 0.00 0.00 43 1013.6
20260830163007 94 178 0.0 1.0 0.00 0.00 0.00 45 1013.7
20260830161501 93 101 0.0 2.0 0.00 0.00 0.00 45 1013.7
20260830154555 91 130 1.0 5.0 0.00 0.00 0.00 46 1013.9
20260830153052 90 127 0.0 3.0 0.00 0.00 0.00 48 1014.0
20260830151548 89 101 0.0 4.0 0.00 0.00 0.00 49 1014.0
20260830150046 88 134 0.0 5.0 0.00 0.00 0.00 50 1014.1
20260830144540 86 100 0.0 3.0 0.00 0.00 0.00 52 1014.1
20260830143036 84 103 0.0 5.0 0.00 0.00 0.00 54 1014.1
20260830141534 82 96 1.0 6.0 0.00 0.00 0.00 57 1014.2
20260830140034 80 123 0.0 4.0 0.00 0.00 0.00 59 1014.3
20260830134542 79 92 0.0 5.0 0.00 0.00 0.00 60 1014.5
20260830133036 78 141 0.0 5.0 0.00 0.00 0.00 62 1014.3
20260830131530 77 113 0.0 5.0 0.00 0.00 0.00 63 1014.4
20260830130028 76 107 0.0 4.0 0.00 0.00 0.00 65 1014.3
20260830124528 75 118 0.0 3.0 0.00 0.00 0.00 65 1014.2
20260830123025 75 112 0.0 3.0 0.00 0.00 0.00 65 1014.2
20260830121523 75 101 0.0 4.0 0.00 0.00 0.00 66 1014.1
20260830120022 75 141 0.0 4.0 0.00 0.00 0.00 66 1014.0
20260830114520 75 179 0.0 4.0 0.00 0.00 0.00 66 1013.9
20260830113023 75 98 0.0 4.0 0.00 0.00 0.00 67 1013.9
20260830111517 75 99 0.0 3.0 0.00 0.00 0.00 67 1013.8
20260830110017 75 94 0.0 3.0 0.00 0.00 0.00 66 1013.8
20260830104515 75 101 0.0 3.0 0.00 0.00 0.00 66 1013.7
20260830103014 75 97 0.0 3.0 0.00 0.00 0.00 67 1013.5
20260830101512 76 105 0.0 0.0 0.00 0.00 0.00 66 1013.5
20260830100010 76 94 0.0 2.0 0.00 0.00 0.00 65 1013.4
20260830094511 76 92 0.0 3.0 0.00 0.00 0.00 65 1013.5
20260830093007 76 91 0.0 3.0 0.00 0.00 0.00 64 1013.5
20260830091505 77 94 0.0 0.0 0.00 0.00 0.00 63 1013.3
20260830090003 77 103 0.0 4.0 0.00 0.00 0.00 62 1013.1